Location: American Medical Response
(33.3472°N, 96.5511°W)
Time: 06:53:46
(UTC+00:00)

Cosmos 1538 Rocket - Pass Details

Date: 08 December 2021
Orbit: 753 x 791 km, 74.0° (Epoch: 17 January)

Event Time Altitude Azimuth Distance (km) Brightness Sun altitude
Rises 12:33:40 0° 342° (NNW) 3,230 6.9 -9.3°
Reaches altitude 10° 12:36:03 10° 342° (NNW) 2,296 6.1 -8.8°
Maximum altitude 12:41:16 87° 255° (WSW) 761 4.0 -7.8°
Drops below altitude 10° 12:46:25 10° 166° (SSE) 2,268 7.0 -6.8°
Sets 12:48:45 0° 166° (SSE) 3,187 7.8 -6.3°
